ONEWEB-0063, 45448

Orbit data source: Space-Track

ONEWEB-0063, 45448 is a payload satellite owned by One Web (UK) in LEO that was launched on Sat, 21 Mar 2020 UTC via a SOYUZ-2-1B launch vehicle from the Tyuratam Missile And Space Complex (TTMTR). Payload-class satellites include a variety of spacecraft equipped with specific instruments for various scientific and technological missions. These include communications satellites like Starlink; space stations such as the ISS; scientific satellites like the Hubble; Earth observation satellites from companies like Planet Labs, Umbra, and HawkEye 360; GPS; miniature CubeSats for education and research; and military/defense satellites.

Loading next visibility...
Identifier
45448, 2020-020AA
Orbit
LEO
Country
Flag of UKUK
Related business
Manufacturer
One Web
Mission
Operational Commercial Communications
Bus & Motor
ARROW, Unknown motor
Mass
148 kg wet, ~140 kg dry
Launch date (UTC)
2020-03-21 (5 years ago)
Launch vehicle
SOYUZ-2-1B
Launch site
Tyuratam Missile And Space Complex (TTMTR)
Object type
Payload
Rocket body
Debris
Shape & HBR
Trap Box + 2 Pan, 2.5 m
Radar Cross Section
2.957 m², Large (>1 m²)

Expand to show TLE details & history
Last TLE update: 9 hours ago

TLE from 9 hours ago
0 ONEWEB-0063
1 45448U 20020AA  25243.24609437  .00000073  00000-0  16997-3 0  9995
2 45448  87.8778  78.8281 0001817  92.6268 267.5068 13.11414884264692
Epoch: 2025-08-31T05:54Z
TLE epoch observation values (Epoch: 2025-08-31T05:54:22.553Z)
Latitude
-0.00002°
Longitude
10.56533°
Altitude
1,220.64 km
Speed
7.244 km/s
True Right ascension
05h 15m 18s
True Declination
0° 00' 00"
Sunlit
Object was in daylight at epoch
Visualization orbit readout
Latitude
Unknown
Longitude
Unknown
Altitude
Unknown
Speed
Unknown
Apparent Right ascension
Unknown
Apparent Declination
Unknown
Sunlit
N/A
Visualization observer readout
Local Sidereal Time
06:49:41
Azimuth
Unknown
Elevation
Unknown
Doppler factor
Unknown
Orbital elements
Apogee altitude
1,216.189 km
Perigee altitude
1,213.429 km
Semi-major axis
7,592.946 km
Eccentricity
0.00018
Inclination
87.8778°
RAAN
78.8281°
Arg. of periapsis
92.6268°
True anomaly
267.486°
Mean anomaly
267.5068°
Eccentric anomaly
267.4964°
Mean motion
3.28041 °/min
Orbital period
109.74 mins
BSTAR
0.00016997
Loading maneuver chart data...
Computing Atmospheric mass density...
Loading historical data...
Loading historical data...
Loading historical data...
Loading historical data...
Loading historical data...
Loading historical data...
Loading historical data...

Documentation

Showing up to 5 results
|